User: anonymous   Login
Location: Unspecified
(0.0000°N, 0.0000°E)
Time: 08:39:37
(UTC+02:00)
Language:

ATLAS V CENTAUR R/B - Orbit

View from above orbital plane
View from above orbital plane
View from above satellite
View from above satellite

Ground track
Ground track

The orbit data is extracted from the following two-line orbital elements,

1 27500U 02038B   14295.25258716  .00012682  00000-0  19770-2 0    35
2 27500 017.7646 207.0694 6944314 095.8263 013.0631 02.72612792 98255
Epoch (UTC): 22 October 2014 06:03:43
Eccentricity: 0.6944314
inclination: 17.7646°
perigee height: 236 km
apogee height: 30298 km
right ascension of ascending node: 207.0694°
argument of perigee: 95.8263°
revolutions per day: 2.72612792
mean anomaly at epoch: 13.0631°
orbit number at epoch: 9825

The dashed part of the orbit path shows where the satellite is in the earth's shadow,  

DLR